Year,Month,Day,Hour,Minute,Value (Times are PST for temperature in C)
2010,08,15,00,00,20.30
2010,08,15,00,01,20.20
2010,08,15,00,02,20.20
2010,08,15,00,03,20.20
2010,08,15,00,04,20.20
2010,08,15,00,05,20.10
2010,08,15,00,06,20.10
2010,08,15,00,07,20.00
2010,08,15,00,08,19.90
2010,08,15,00,09,19.90
2010,08,15,00,10,19.90
2010,08,15,00,11,19.80
2010,08,15,00,12,19.80
2010,08,15,00,13,19.80
2010,08,15,00,14,19.70
2010,08,15,00,15,19.70
2010,08,15,00,16,19.70
2010,08,15,00,17,19.70
2010,08,15,00,18,19.70
2010,08,15,00,19,19.80
2010,08,15,00,20,19.80
2010,08,15,00,21,19.80
2010,08,15,00,22,19.90
2010,08,15,00,23,19.90
2010,08,15,00,24,19.90
2010,08,15,00,25,20.00
2010,08,15,00,26,20.10
2010,08,15,00,27,20.10
2010,08,15,00,28,20.10
2010,08,15,00,29,20.10
2010,08,15,00,30,20.10
2010,08,15,00,31,20.20
2010,08,15,00,32,20.20
2010,08,15,00,33,20.20
2010,08,15,00,34,20.20
2010,08,15,00,35,20.20
2010,08,15,00,36,20.20
2010,08,15,00,37,20.30
2010,08,15,00,38,20.30
2010,08,15,00,39,20.30
2010,08,15,00,40,20.30
2010,08,15,00,41,20.30
2010,08,15,00,42,20.40
2010,08,15,00,43,20.40
2010,08,15,00,44,20.40
2010,08,15,00,45,20.40
2010,08,15,00,46,20.40
2010,08,15,00,47,20.50
2010,08,15,00,48,20.50
2010,08,15,00,49,20.50
2010,08,15,00,50,20.60
2010,08,15,00,51,20.60
2010,08,15,00,52,20.60
2010,08,15,00,53,20.60
2010,08,15,00,54,20.70
2010,08,15,00,55,20.70
2010,08,15,00,56,20.70
2010,08,15,00,57,20.80
2010,08,15,00,58,20.80
2010,08,15,00,59,20.80
2010,08,15,01,00,20.80
2010,08,15,01,01,20.80
2010,08,15,01,02,20.80
2010,08,15,01,03,20.80
2010,08,15,01,04,20.80
2010,08,15,01,05,20.80
2010,08,15,01,06,20.80
2010,08,15,01,07,20.80
2010,08,15,01,08,20.70
2010,08,15,01,09,20.70
2010,08,15,01,10,20.70
2010,08,15,01,11,20.70
2010,08,15,01,12,20.70
2010,08,15,01,13,20.70
2010,08,15,01,14,20.70
2010,08,15,01,15,20.70
2010,08,15,01,16,20.70
2010,08,15,01,17,20.70
2010,08,15,01,18,20.60
2010,08,15,01,19,20.60
2010,08,15,01,20,20.60
2010,08,15,01,21,20.60
2010,08,15,01,22,20.60
2010,08,15,01,23,20.50
2010,08,15,01,24,20.50
2010,08,15,01,25,20.50
2010,08,15,01,26,20.50
2010,08,15,01,27,20.50
2010,08,15,01,28,20.40
2010,08,15,01,29,20.40
2010,08,15,01,30,20.40
2010,08,15,01,31,20.40
2010,08,15,01,32,20.40
2010,08,15,01,33,20.40
2010,08,15,01,34,20.40
2010,08,15,01,35,20.40
2010,08,15,01,36,20.40
2010,08,15,01,37,20.40
2010,08,15,01,38,20.40
2010,08,15,01,39,20.50
2010,08,15,01,40,20.50
2010,08,15,01,41,20.50
2010,08,15,01,42,20.50
2010,08,15,01,43,20.50
2010,08,15,01,44,20.50
2010,08,15,01,45,20.40
2010,08,15,01,46,20.40
2010,08,15,01,47,20.40
2010,08,15,01,48,20.40
2010,08,15,01,49,20.40
2010,08,15,01,50,20.40
2010,08,15,01,51,20.40
2010,08,15,01,52,20.40
2010,08,15,01,53,20.40
2010,08,15,01,54,20.40
2010,08,15,01,55,20.40
2010,08,15,01,56,20.40
2010,08,15,01,57,20.40
2010,08,15,01,58,20.40
2010,08,15,01,59,20.40
2010,08,15,02,00,20.50
2010,08,15,02,01,20.50
2010,08,15,02,02,20.50
2010,08,15,02,03,20.50
2010,08,15,02,04,20.40
2010,08,15,02,05,20.40
2010,08,15,02,06,20.40
2010,08,15,02,07,20.40
2010,08,15,02,08,20.40
2010,08,15,02,09,20.40
2010,08,15,02,10,20.40
2010,08,15,02,11,20.30
2010,08,15,02,12,20.30
2010,08,15,02,13,20.20
2010,08,15,02,14,20.20
2010,08,15,02,15,20.20
2010,08,15,02,16,20.20
2010,08,15,02,17,20.10
2010,08,15,02,18,20.10
2010,08,15,02,19,20.10
2010,08,15,02,20,20.00
2010,08,15,02,21,19.90
2010,08,15,02,22,19.90
2010,08,15,02,23,19.90
2010,08,15,02,24,19.90
2010,08,15,02,25,19.90
2010,08,15,02,26,19.90
2010,08,15,02,27,19.90
2010,08,15,02,28,19.90
2010,08,15,02,29,19.90
2010,08,15,02,30,19.80
2010,08,15,02,31,19.80
2010,08,15,02,32,19.80
2010,08,15,02,33,19.80
2010,08,15,02,34,19.80
2010,08,15,02,35,19.70
2010,08,15,02,36,19.70
2010,08,15,02,37,19.70
2010,08,15,02,38,19.70
2010,08,15,02,39,19.70
2010,08,15,02,40,19.70
2010,08,15,02,41,19.70
2010,08,15,02,42,19.70
2010,08,15,02,43,19.70
2010,08,15,02,44,19.70
2010,08,15,02,45,19.70
2010,08,15,02,46,19.70
2010,08,15,02,47,19.70
2010,08,15,02,48,19.80
2010,08,15,02,49,19.80
2010,08,15,02,50,19.80
2010,08,15,02,51,19.80
2010,08,15,02,52,19.90
2010,08,15,02,53,19.90
2010,08,15,02,54,19.90
2010,08,15,02,55,19.90
2010,08,15,02,56,19.90
2010,08,15,02,57,19.90
2010,08,15,02,58,19.90
2010,08,15,02,59,19.90
2010,08,15,03,00,19.90
2010,08,15,03,01,19.90
2010,08,15,03,02,19.90
2010,08,15,03,03,19.90
2010,08,15,03,04,19.90
2010,08,15,03,05,19.90
2010,08,15,03,06,19.90
2010,08,15,03,07,19.90
2010,08,15,03,08,19.90
2010,08,15,03,09,19.90
2010,08,15,03,10,19.90
2010,08,15,03,11,19.90
2010,08,15,03,12,19.80
2010,08,15,03,13,19.80
2010,08,15,03,14,19.80
2010,08,15,03,15,19.80
2010,08,15,03,16,19.80
2010,08,15,03,17,19.70
2010,08,15,03,18,19.70
2010,08,15,03,19,19.70
2010,08,15,03,20,19.70
2010,08,15,03,21,19.60
2010,08,15,03,22,19.60
2010,08,15,03,23,19.60
2010,08,15,03,24,19.60
2010,08,15,03,25,19.60
2010,08,15,03,26,19.50
2010,08,15,03,27,19.50
2010,08,15,03,28,19.50
2010,08,15,03,29,19.50
2010,08,15,03,30,19.50
2010,08,15,03,31,19.40
2010,08,15,03,32,19.40
2010,08,15,03,33,19.40
2010,08,15,03,34,19.40
2010,08,15,03,35,19.40
2010,08,15,03,36,19.30
2010,08,15,03,37,19.30
2010,08,15,03,38,19.30
2010,08,15,03,39,19.30
2010,08,15,03,40,19.20
2010,08,15,03,41,19.20
2010,08,15,03,42,19.20
2010,08,15,03,43,19.20
2010,08,15,03,44,19.20
2010,08,15,03,45,19.10
2010,08,15,03,46,19.10
2010,08,15,03,47,19.10
2010,08,15,03,48,19.10
2010,08,15,03,49,19.10
2010,08,15,03,50,19.10
2010,08,15,03,51,19.10
2010,08,15,03,52,19.10
2010,08,15,03,53,19.10
2010,08,15,03,54,19.10
2010,08,15,03,55,19.10
2010,08,15,03,56,19.10
2010,08,15,03,57,19.10
2010,08,15,03,58,19.10
2010,08,15,03,59,19.10
2010,08,15,04,00,19.10
2010,08,15,04,01,19.10
2010,08,15,04,02,19.10
2010,08,15,04,03,19.10
2010,08,15,04,04,19.10
2010,08,15,04,05,19.10
2010,08,15,04,06,19.10
2010,08,15,04,07,19.10
2010,08,15,04,08,19.10
2010,08,15,04,09,19.10
2010,08,15,04,10,19.10
2010,08,15,04,11,19.10
2010,08,15,04,12,18.90
2010,08,15,04,13,18.90
2010,08,15,04,14,18.90
2010,08,15,04,15,18.90
2010,08,15,04,16,18.90
2010,08,15,04,17,18.90
2010,08,15,04,18,18.90
2010,08,15,04,19,18.80
2010,08,15,04,20,18.80
2010,08,15,04,21,18.80
2010,08,15,04,22,18.80
2010,08,15,04,23,18.80
2010,08,15,04,24,18.80
2010,08,15,04,25,18.80
2010,08,15,04,26,18.80
2010,08,15,04,27,18.80
2010,08,15,04,28,18.80
2010,08,15,04,29,18.80
2010,08,15,04,30,18.90
2010,08,15,04,31,18.90
2010,08,15,04,32,18.90
2010,08,15,04,33,19.00
2010,08,15,04,34,19.10
2010,08,15,04,35,19.10
2010,08,15,04,36,19.10
2010,08,15,04,37,19.20
2010,08,15,04,38,19.20
2010,08,15,04,39,19.20
2010,08,15,04,40,19.30
2010,08,15,04,41,19.30
2010,08,15,04,42,19.30
2010,08,15,04,43,19.40
2010,08,15,04,44,19.40
2010,08,15,04,45,19.40
2010,08,15,04,46,19.50
2010,08,15,04,47,19.50
2010,08,15,04,48,19.60
2010,08,15,04,49,19.60
2010,08,15,04,50,19.60
2010,08,15,04,51,19.70
2010,08,15,04,52,19.70
2010,08,15,04,53,19.80
2010,08,15,04,54,19.80
2010,08,15,04,55,19.80
2010,08,15,04,56,19.80
2010,08,15,04,57,19.70
2010,08,15,04,58,19.70
2010,08,15,04,59,19.70
2010,08,15,05,00,19.60
2010,08,15,05,01,19.60
2010,08,15,05,02,19.50
2010,08,15,05,03,19.50
2010,08,15,05,04,19.50
2010,08,15,05,05,19.40
2010,08,15,05,06,19.40
2010,08,15,05,07,19.30
2010,08,15,05,08,19.30
2010,08,15,05,09,19.20
2010,08,15,05,10,19.20
2010,08,15,05,11,19.20
2010,08,15,05,12,19.10
2010,08,15,05,13,19.10
2010,08,15,05,14,19.10
2010,08,15,05,15,19.10
2010,08,15,05,16,19.10
2010,08,15,05,17,19.00
2010,08,15,05,18,18.90
2010,08,15,05,19,18.90
2010,08,15,05,20,18.90
2010,08,15,05,21,18.90
2010,08,15,05,22,18.90
2010,08,15,05,23,18.90
2010,08,15,05,24,18.90
2010,08,15,05,25,19.00
2010,08,15,05,26,19.10
2010,08,15,05,27,19.10
2010,08,15,05,28,19.00
2010,08,15,05,29,18.90
2010,08,15,05,30,18.90
2010,08,15,05,31,18.70
2010,08,15,05,32,18.60
2010,08,15,05,33,18.60
2010,08,15,05,34,18.50
2010,08,15,05,35,18.40
2010,08,15,05,36,18.30
2010,08,15,05,37,18.20
2010,08,15,05,38,18.20
2010,08,15,05,39,18.10
2010,08,15,05,40,18.00
2010,08,15,05,41,17.90
2010,08,15,05,42,17.90
2010,08,15,05,43,17.80
2010,08,15,05,44,17.80
2010,08,15,05,45,17.70
2010,08,15,05,46,17.70
2010,08,15,05,47,17.70
2010,08,15,05,48,17.60
2010,08,15,05,49,17.60
2010,08,15,05,50,17.50
2010,08,15,05,51,17.50
2010,08,15,05,52,17.50
2010,08,15,05,53,17.40
2010,08,15,05,54,17.40
2010,08,15,05,55,17.40
2010,08,15,05,56,17.40
2010,08,15,05,57,17.30
2010,08,15,05,58,17.30
2010,08,15,05,59,17.30
2010,08,15,06,00,17.30
2010,08,15,06,01,17.30
2010,08,15,06,02,17.30
2010,08,15,06,03,17.30
2010,08,15,06,04,17.40
2010,08,15,06,05,17.40
2010,08,15,06,06,17.40
2010,08,15,06,07,17.40
2010,08,15,06,08,17.40
2010,08,15,06,09,17.40
2010,08,15,06,10,17.40
2010,08,15,06,11,17.40
2010,08,15,06,12,17.40
2010,08,15,06,13,17.50
2010,08,15,06,14,17.50
2010,08,15,06,15,17.40
2010,08,15,06,16,17.40
2010,08,15,06,17,17.50
2010,08,15,06,18,17.50
2010,08,15,06,19,17.50
2010,08,15,06,20,17.50
2010,08,15,06,21,17.50
2010,08,15,06,22,17.60
2010,08,15,06,23,17.60
2010,08,15,06,24,17.60
2010,08,15,06,25,17.70
2010,08,15,06,26,17.70
2010,08,15,06,27,17.70
2010,08,15,06,28,17.70
2010,08,15,06,29,17.80
2010,08,15,06,30,17.80
2010,08,15,06,31,17.80
2010,08,15,06,32,17.80
2010,08,15,06,33,17.80
2010,08,15,06,34,17.90
2010,08,15,06,35,17.90
2010,08,15,06,36,17.90
2010,08,15,06,37,17.90
2010,08,15,06,38,18.00
2010,08,15,06,39,18.10
2010,08,15,06,40,18.10
2010,08,15,06,41,18.20
2010,08,15,06,42,18.20
2010,08,15,06,43,18.20
2010,08,15,06,44,18.20
2010,08,15,06,45,18.20
2010,08,15,06,46,18.20
2010,08,15,06,47,18.20
2010,08,15,06,48,18.20
2010,08,15,06,49,18.10
2010,08,15,06,50,18.10
2010,08,15,06,51,18.10
2010,08,15,06,52,18.20
2010,08,15,06,53,18.20
2010,08,15,06,54,18.30
2010,08,15,06,55,18.40
2010,08,15,06,56,18.50
2010,08,15,06,57,18.60
2010,08,15,06,58,18.70
2010,08,15,06,59,18.90
2010,08,15,07,00,18.90
2010,08,15,07,01,19.10
2010,08,15,07,02,19.10
2010,08,15,07,03,19.20
2010,08,15,07,04,19.30
2010,08,15,07,05,19.30
2010,08,15,07,06,19.40
2010,08,15,07,07,19.40
2010,08,15,07,08,19.40
2010,08,15,07,09,19.50
2010,08,15,07,10,19.50
2010,08,15,07,11,19.50
2010,08,15,07,12,19.50
2010,08,15,07,13,19.50
2010,08,15,07,14,19.50
2010,08,15,07,15,19.50
2010,08,15,07,16,19.50
2010,08,15,07,17,19.50
2010,08,15,07,18,19.50
2010,08,15,07,19,19.60
2010,08,15,07,20,19.60
2010,08,15,07,21,19.60
2010,08,15,07,22,19.60
2010,08,15,07,23,19.60
2010,08,15,07,24,19.60
2010,08,15,07,25,19.60
2010,08,15,07,26,19.60
2010,08,15,07,27,19.60
2010,08,15,07,28,19.70
2010,08,15,07,29,19.70
2010,08,15,07,30,19.80
2010,08,15,07,31,19.90
2010,08,15,07,32,19.90
2010,08,15,07,33,19.90
2010,08,15,07,34,20.00
2010,08,15,07,35,20.10
2010,08,15,07,36,20.10
2010,08,15,07,37,20.10
2010,08,15,07,38,20.10
2010,08,15,07,39,20.10
2010,08,15,07,40,20.10
2010,08,15,07,41,20.20
2010,08,15,07,42,20.20
2010,08,15,07,43,20.30
2010,08,15,07,44,20.40
2010,08,15,07,45,20.50
2010,08,15,07,46,20.60
2010,08,15,07,47,20.70
2010,08,15,07,48,20.80
2010,08,15,07,49,20.90
2010,08,15,07,50,21.00
2010,08,15,07,51,21.00
2010,08,15,07,52,21.10
2010,08,15,07,53,21.20
2010,08,15,07,54,21.30
2010,08,15,07,55,21.30
2010,08,15,07,56,21.30
2010,08,15,07,57,21.30
2010,08,15,07,58,21.40
2010,08,15,07,59,21.40
2010,08,15,08,00,21.40
2010,08,15,08,01,21.40
2010,08,15,08,02,21.40
2010,08,15,08,03,21.40
2010,08,15,08,04,21.40
2010,08,15,08,05,21.40
2010,08,15,08,06,21.60
2010,08,15,08,07,21.60
2010,08,15,08,08,21.60
2010,08,15,08,09,21.70
2010,08,15,08,10,21.70
2010,08,15,08,11,21.70
2010,08,15,08,12,21.70
2010,08,15,08,13,21.70
2010,08,15,08,14,21.70
2010,08,15,08,15,21.80
2010,08,15,08,16,21.80
2010,08,15,08,17,22.00
2010,08,15,08,18,22.10
2010,08,15,08,19,22.10
2010,08,15,08,20,22.30
2010,08,15,08,21,22.40
2010,08,15,08,22,22.50
2010,08,15,08,23,22.70
2010,08,15,08,24,22.80
2010,08,15,08,25,22.90
2010,08,15,08,26,23.20
2010,08,15,08,27,23.30
2010,08,15,08,28,23.50
2010,08,15,08,29,23.60
2010,08,15,08,30,23.70
2010,08,15,08,31,23.80
2010,08,15,08,32,23.90
2010,08,15,08,33,24.10
2010,08,15,08,34,24.10
2010,08,15,08,35,24.10
2010,08,15,08,36,24.20
2010,08,15,08,37,24.30
2010,08,15,08,38,24.30
2010,08,15,08,39,24.40
2010,08,15,08,40,24.40
2010,08,15,08,41,24.50
2010,08,15,08,42,24.50
2010,08,15,08,43,24.50
2010,08,15,08,44,24.60
2010,08,15,08,45,24.60
2010,08,15,08,46,24.60
2010,08,15,08,47,24.60
2010,08,15,08,48,24.70
2010,08,15,08,49,24.70
2010,08,15,08,50,24.70
2010,08,15,08,51,24.80
2010,08,15,08,52,24.90
2010,08,15,08,53,24.90
2010,08,15,08,54,24.90
2010,08,15,08,55,25.00
2010,08,15,08,56,25.00
2010,08,15,08,57,25.10
2010,08,15,08,58,25.10
2010,08,15,08,59,25.20
2010,08,15,09,00,25.20
2010,08,15,09,01,25.20
2010,08,15,09,02,25.30
2010,08,15,09,03,25.30
2010,08,15,09,04,25.40
2010,08,15,09,05,25.50
2010,08,15,09,06,25.60
2010,08,15,09,07,25.60
2010,08,15,09,08,25.70
2010,08,15,09,09,25.70
2010,08,15,09,10,25.80
2010,08,15,09,11,25.80
2010,08,15,09,12,25.80
2010,08,15,09,13,25.90
2010,08,15,09,14,25.90
2010,08,15,09,15,25.90
2010,08,15,09,16,25.90
2010,08,15,09,17,26.00
2010,08,15,09,18,26.00
2010,08,15,09,19,26.00
2010,08,15,09,20,26.00
2010,08,15,09,21,26.00
2010,08,15,09,22,26.00
2010,08,15,09,23,26.10
2010,08,15,09,24,26.10
2010,08,15,09,25,26.10
2010,08,15,09,26,26.10
2010,08,15,09,27,26.10
2010,08,15,09,28,26.00
2010,08,15,09,29,26.00
2010,08,15,09,30,26.00
2010,08,15,09,31,26.10
2010,08,15,09,32,26.10
2010,08,15,09,33,26.20
2010,08,15,09,34,26.30
2010,08,15,09,35,26.40
2010,08,15,09,36,26.40
2010,08,15,09,37,26.40
2010,08,15,09,38,26.40
2010,08,15,09,39,26.40
2010,08,15,09,40,26.40
2010,08,15,09,41,26.40
2010,08,15,09,42,26.40
2010,08,15,09,43,26.60
2010,08,15,09,44,26.60
2010,08,15,09,45,26.60
2010,08,15,09,46,26.60
2010,08,15,09,47,26.70
2010,08,15,09,48,26.70
2010,08,15,09,49,26.70
2010,08,15,09,50,26.80
2010,08,15,09,51,26.90
2010,08,15,09,52,27.00
2010,08,15,09,53,27.10
2010,08,15,09,54,27.10
2010,08,15,09,55,27.20
2010,08,15,09,56,27.20
2010,08,15,09,57,27.30
2010,08,15,09,58,27.30
2010,08,15,09,59,27.30
2010,08,15,10,00,27.30
2010,08,15,10,01,27.30
2010,08,15,10,02,27.30
2010,08,15,10,03,27.20
2010,08,15,10,04,27.10
2010,08,15,10,05,27.10
2010,08,15,10,06,27.00
2010,08,15,10,07,26.90
2010,08,15,10,08,26.90
2010,08,15,10,09,27.10
2010,08,15,10,10,27.20
2010,08,15,10,11,27.20
2010,08,15,10,12,27.30
2010,08,15,10,13,27.30
2010,08,15,10,14,27.30
2010,08,15,10,15,27.30
2010,08,15,10,16,27.30
2010,08,15,10,17,27.30
2010,08,15,10,18,27.20
2010,08,15,10,19,27.10
2010,08,15,10,20,27.10
2010,08,15,10,21,27.10
2010,08,15,10,22,27.20
2010,08,15,10,23,27.30
2010,08,15,10,24,27.30
2010,08,15,10,25,27.30
2010,08,15,10,26,27.30
2010,08,15,10,27,27.30
2010,08,15,10,28,27.30
2010,08,15,10,29,27.30
2010,08,15,10,30,27.30
2010,08,15,10,31,27.30
2010,08,15,10,32,27.40
2010,08,15,10,33,27.50
2010,08,15,10,34,27.60
2010,08,15,10,35,27.70
2010,08,15,10,36,27.80
2010,08,15,10,37,27.80
2010,08,15,10,38,27.90
2010,08,15,10,39,28.00
2010,08,15,10,40,28.00
2010,08,15,10,41,28.00
2010,08,15,10,42,28.10
2010,08,15,10,43,28.20
2010,08,15,10,44,28.20
2010,08,15,10,45,28.40
2010,08,15,10,46,28.50
2010,08,15,10,47,28.60
2010,08,15,10,48,28.60
2010,08,15,10,49,28.60
2010,08,15,10,50,28.60
2010,08,15,10,51,28.60
2010,08,15,10,52,28.70
2010,08,15,10,53,28.80
2010,08,15,10,54,28.90
2010,08,15,10,55,28.90
2010,08,15,10,56,28.90
2010,08,15,10,57,28.90
2010,08,15,10,58,28.90
2010,08,15,10,59,28.90
2010,08,15,11,00,28.80
2010,08,15,11,01,28.80
2010,08,15,11,02,28.90
2010,08,15,11,03,28.90
2010,08,15,11,04,28.90
2010,08,15,11,05,28.90
2010,08,15,11,06,28.90
2010,08,15,11,07,29.00
2010,08,15,11,08,29.00
2010,08,15,11,09,29.10
2010,08,15,11,10,29.20
2010,08,15,11,11,29.30
2010,08,15,11,12,29.30
2010,08,15,11,13,29.30
2010,08,15,11,14,29.30
2010,08,15,11,15,29.40
2010,08,15,11,16,29.40
2010,08,15,11,17,29.50
2010,08,15,11,18,29.50
2010,08,15,11,19,29.60
2010,08,15,11,20,29.70
2010,08,15,11,21,29.60
2010,08,15,11,22,29.60
2010,08,15,11,23,29.70
2010,08,15,11,24,29.70
2010,08,15,11,25,29.90
2010,08,15,11,26,30.00
2010,08,15,11,27,30.20
2010,08,15,11,28,30.30
2010,08,15,11,29,30.40
2010,08,15,11,30,30.40
2010,08,15,11,31,30.40
2010,08,15,11,32,30.40
2010,08,15,11,33,30.30
2010,08,15,11,34,30.30
2010,08,15,11,35,30.30
2010,08,15,11,36,30.30
2010,08,15,11,37,30.30
2010,08,15,11,38,30.40
2010,08,15,11,39,30.60
2010,08,15,11,40,30.70
2010,08,15,11,41,30.80
2010,08,15,11,42,30.80
2010,08,15,11,43,30.70
2010,08,15,11,44,30.70
2010,08,15,11,45,30.60
2010,08,15,11,46,30.70
2010,08,15,11,47,30.70
2010,08,15,11,48,30.70
2010,08,15,11,49,30.80
2010,08,15,11,50,30.90
2010,08,15,11,51,30.80
2010,08,15,11,52,30.80
2010,08,15,11,53,30.80
2010,08,15,11,54,30.80
2010,08,15,11,55,30.80
2010,08,15,11,56,30.80
2010,08,15,11,57,30.80
2010,08,15,11,58,30.80
2010,08,15,11,59,30.70
2010,08,15,12,00,30.60
2010,08,15,12,01,30.60
2010,08,15,12,02,30.50
2010,08,15,12,03,30.40
2010,08,15,12,04,30.40
2010,08,15,12,05,30.40
2010,08,15,12,06,30.40
2010,08,15,12,07,30.50
2010,08,15,12,08,30.60
2010,08,15,12,09,30.70
2010,08,15,12,10,30.80
2010,08,15,12,11,30.90
2010,08,15,12,12,31.10
2010,08,15,12,13,31.10
2010,08,15,12,14,31.00
2010,08,15,12,15,31.00
2010,08,15,12,16,31.00
2010,08,15,12,17,31.10
2010,08,15,12,18,31.20
2010,08,15,12,19,31.30
2010,08,15,12,20,31.30
2010,08,15,12,21,31.40
2010,08,15,12,22,31.40
2010,08,15,12,23,31.40
2010,08,15,12,24,31.50
2010,08,15,12,25,31.60
2010,08,15,12,26,31.60
2010,08,15,12,27,31.60
2010,08,15,12,28,31.70
2010,08,15,12,29,31.70
2010,08,15,12,30,31.70
2010,08,15,12,31,31.70
2010,08,15,12,32,31.60
2010,08,15,12,33,31.60
2010,08,15,12,34,31.70
2010,08,15,12,35,31.80
2010,08,15,12,36,32.00
2010,08,15,12,37,32.10
2010,08,15,12,38,32.10
2010,08,15,12,39,32.10
2010,08,15,12,40,32.00
2010,08,15,12,41,31.90
2010,08,15,12,42,31.90
2010,08,15,12,43,31.80
2010,08,15,12,44,31.80
2010,08,15,12,45,31.80
2010,08,15,12,46,31.90
2010,08,15,12,47,32.00
2010,08,15,12,48,32.10
2010,08,15,12,49,32.20
2010,08,15,12,50,32.20
2010,08,15,12,51,32.30
2010,08,15,12,52,32.20
2010,08,15,12,53,32.20
2010,08,15,12,54,32.10
2010,08,15,12,55,32.10
2010,08,15,12,56,32.10
2010,08,15,12,57,32.20
2010,08,15,12,58,32.30
2010,08,15,12,59,32.30
2010,08,15,13,00,32.40
2010,08,15,13,01,32.40
2010,08,15,13,02,32.40
2010,08,15,13,03,32.50
2010,08,15,13,04,32.60
2010,08,15,13,05,32.80
2010,08,15,13,06,32.80
2010,08,15,13,07,32.80
2010,08,15,13,08,32.90
2010,08,15,13,09,32.90
2010,08,15,13,10,32.80
2010,08,15,13,11,32.60
2010,08,15,13,12,32.40
2010,08,15,13,13,32.30
2010,08,15,13,14,32.20
2010,08,15,13,15,32.20
2010,08,15,13,16,32.30
2010,08,15,13,17,32.20
2010,08,15,13,18,32.10
2010,08,15,13,19,32.10
2010,08,15,13,20,32.10
2010,08,15,13,21,32.10
2010,08,15,13,22,32.10
2010,08,15,13,23,32.10
2010,08,15,13,24,32.20
2010,08,15,13,25,32.20
2010,08,15,13,26,32.30
2010,08,15,13,27,32.40
2010,08,15,13,28,32.50
2010,08,15,13,29,32.50
2010,08,15,13,30,32.50
2010,08,15,13,31,32.50
2010,08,15,13,32,32.40
2010,08,15,13,33,32.40
2010,08,15,13,34,32.30
2010,08,15,13,35,32.30
2010,08,15,13,36,32.30
2010,08,15,13,37,32.40
2010,08,15,13,38,32.40
2010,08,15,13,39,32.40
2010,08,15,13,40,32.50
2010,08,15,13,41,32.50
2010,08,15,13,42,32.40
2010,08,15,13,43,32.30
2010,08,15,13,44,32.30
2010,08,15,13,45,32.30
2010,08,15,13,46,32.30
2010,08,15,13,47,32.30
2010,08,15,13,48,32.40
2010,08,15,13,49,32.40
2010,08,15,13,50,32.30
2010,08,15,13,51,32.20
2010,08,15,13,52,32.20
2010,08,15,13,53,32.20
2010,08,15,13,54,32.20
2010,08,15,13,55,32.20
2010,08,15,13,56,32.30
2010,08,15,13,57,32.20
2010,08,15,13,58,32.00
2010,08,15,13,59,31.70
2010,08,15,14,00,31.70
2010,08,15,14,01,31.80
2010,08,15,14,02,32.00
2010,08,15,14,03,32.10
2010,08,15,14,04,32.10
2010,08,15,14,05,32.20
2010,08,15,14,06,32.20
2010,08,15,14,07,32.30
2010,08,15,14,08,32.30
2010,08,15,14,09,32.40
2010,08,15,14,10,32.40
2010,08,15,14,11,32.50
2010,08,15,14,12,32.50
2010,08,15,14,13,32.50
2010,08,15,14,14,32.60
2010,08,15,14,15,32.70
2010,08,15,14,16,32.80
2010,08,15,14,17,33.00
2010,08,15,14,18,33.10
2010,08,15,14,19,33.10
2010,08,15,14,20,33.00
2010,08,15,14,21,32.90
2010,08,15,14,22,32.90
2010,08,15,14,23,32.90
2010,08,15,14,24,32.90
2010,08,15,14,25,32.80
2010,08,15,14,26,32.80
2010,08,15,14,27,32.60
2010,08,15,14,28,32.50
2010,08,15,14,29,32.40
2010,08,15,14,30,32.40
2010,08,15,14,31,32.30
2010,08,15,14,32,32.20
2010,08,15,14,33,32.20
2010,08,15,14,34,32.20
2010,08,15,14,35,32.20
2010,08,15,14,36,32.20
2010,08,15,14,37,32.20
2010,08,15,14,38,32.20
2010,08,15,14,39,32.20
2010,08,15,14,40,32.30
2010,08,15,14,41,32.30
2010,08,15,14,42,32.40
2010,08,15,14,43,32.50
2010,08,15,14,44,32.50
2010,08,15,14,45,32.60
2010,08,15,14,46,32.60
2010,08,15,14,47,32.60
2010,08,15,14,48,32.60
2010,08,15,14,49,32.60
2010,08,15,14,50,32.50
2010,08,15,14,51,32.40
2010,08,15,14,52,32.40
2010,08,15,14,53,32.50
2010,08,15,14,54,32.40
2010,08,15,14,55,32.50
2010,08,15,14,56,32.40
2010,08,15,14,57,32.40
2010,08,15,14,58,32.40
2010,08,15,14,59,32.30
2010,08,15,15,00,32.30
2010,08,15,15,01,32.40
2010,08,15,15,02,32.50
2010,08,15,15,03,32.50
2010,08,15,15,04,32.50
2010,08,15,15,05,32.60
2010,08,15,15,06,32.60
2010,08,15,15,07,32.60
2010,08,15,15,08,32.50
2010,08,15,15,09,32.60
2010,08,15,15,10,32.50
2010,08,15,15,11,32.50
2010,08,15,15,12,32.50
2010,08,15,15,13,32.60
2010,08,15,15,14,32.60
2010,08,15,15,15,32.50
2010,08,15,15,16,32.40
2010,08,15,15,17,32.40
2010,08,15,15,18,32.40
2010,08,15,15,19,32.40
2010,08,15,15,20,32.40
2010,08,15,15,21,32.30
2010,08,15,15,22,32.00
2010,08,15,15,23,31.70
2010,08,15,15,24,31.70
2010,08,15,15,25,31.60
2010,08,15,15,26,31.60
2010,08,15,15,27,31.60
2010,08,15,15,28,31.60
2010,08,15,15,29,31.70
2010,08,15,15,30,31.70
2010,08,15,15,31,31.80
2010,08,15,15,32,32.00
2010,08,15,15,33,32.10
2010,08,15,15,34,31.90
2010,08,15,15,35,31.80
2010,08,15,15,36,31.90
2010,08,15,15,37,32.00
2010,08,15,15,38,32.10
2010,08,15,15,39,32.10
2010,08,15,15,40,32.10
2010,08,15,15,41,32.10
2010,08,15,15,42,32.00
2010,08,15,15,43,31.90
2010,08,15,15,44,31.80
2010,08,15,15,45,31.70
2010,08,15,15,46,31.60
2010,08,15,15,47,31.50
2010,08,15,15,48,31.40
2010,08,15,15,49,31.20
2010,08,15,15,50,31.10
2010,08,15,15,51,31.10
2010,08,15,15,52,31.10
2010,08,15,15,53,31.10
2010,08,15,15,54,31.10
2010,08,15,15,55,31.10
2010,08,15,15,56,30.90
2010,08,15,15,57,30.80
2010,08,15,15,58,30.70
2010,08,15,15,59,30.70
2010,08,15,16,00,30.70
2010,08,15,16,01,30.70
2010,08,15,16,02,30.60
2010,08,15,16,03,30.60
2010,08,15,16,04,30.70
2010,08,15,16,05,30.90
2010,08,15,16,06,31.00
2010,08,15,16,07,31.10
2010,08,15,16,08,31.10
2010,08,15,16,09,31.10
2010,08,15,16,10,31.10
2010,08,15,16,11,31.10
2010,08,15,16,12,31.20
2010,08,15,16,13,31.10
2010,08,15,16,14,30.90
2010,08,15,16,15,30.60
2010,08,15,16,16,30.40
2010,08,15,16,17,30.30
2010,08,15,16,18,30.30
2010,08,15,16,19,30.50
2010,08,15,16,20,30.70
2010,08,15,16,21,30.80
2010,08,15,16,22,31.00
2010,08,15,16,23,31.10
2010,08,15,16,24,31.20
2010,08,15,16,25,31.30
2010,08,15,16,26,31.50
2010,08,15,16,27,31.60
2010,08,15,16,28,31.70
2010,08,15,16,29,31.60
2010,08,15,16,30,31.30
2010,08,15,16,31,31.00
2010,08,15,16,32,30.90
2010,08,15,16,33,30.80
2010,08,15,16,34,30.80
2010,08,15,16,35,30.80
2010,08,15,16,36,30.80
2010,08,15,16,37,30.80
2010,08,15,16,38,30.80
2010,08,15,16,39,30.90
2010,08,15,16,40,31.00
2010,08,15,16,41,31.00
2010,08,15,16,42,31.00
2010,08,15,16,43,31.10
2010,08,15,16,44,31.10
2010,08,15,16,45,31.20
2010,08,15,16,46,31.20
2010,08,15,16,47,31.20
2010,08,15,16,48,31.00
2010,08,15,16,49,30.80
2010,08,15,16,50,30.80
2010,08,15,16,51,30.80
2010,08,15,16,52,30.80
2010,08,15,16,53,30.70
2010,08,15,16,54,30.70
2010,08,15,16,55,30.70
2010,08,15,16,56,30.70
2010,08,15,16,57,30.70
2010,08,15,16,58,30.70
2010,08,15,16,59,30.80
2010,08,15,17,00,30.80
2010,08,15,17,01,30.90
2010,08,15,17,02,30.90
2010,08,15,17,03,31.00
2010,08,15,17,04,31.00
2010,08,15,17,05,31.00
2010,08,15,17,06,31.00
2010,08,15,17,07,31.00
2010,08,15,17,08,31.00
2010,08,15,17,09,30.90
2010,08,15,17,10,31.00
2010,08,15,17,11,31.00
2010,08,15,17,12,31.00
2010,08,15,17,13,31.00
2010,08,15,17,14,31.00
2010,08,15,17,15,31.00
2010,08,15,17,16,31.00
2010,08,15,17,17,31.00
2010,08,15,17,18,31.00
2010,08,15,17,19,31.00